Regional Weather Roundup
Issued by NWS

Home | Current Version | Previous Version | Graphics & Text | Print | Product List | Glossary On
Versions: 1 2 3 4 5 6 7 8 9 10 11 12 13 14 15 16 17 18 19 20 21 22 23 24 25 26 27 28 29 30 31 32 33 34 35 36 37 38 39 40 41 42 43 44 45 46 47 48 49 50
000
ASUS43 KBIS 031802
RWRND

NORTH DAKOTA REGIONAL WEATHER ROUNDUP
NATIONAL WEATHER SERVICE BISMARCK ND
100 PM CDT FRI JUL 03 2015

NOTE: "FAIR" INDICATES FEW OR NO CLOUDS BELOW 12,000 FEET WITH NO
SIGNIFICANT WEATHER AND/OR OBSTRUCTIONS TO VISIBILITY.


NDZ001>003-009>011-017-031900-
NORTHWEST NORTH DAKOTA

CITY           SKY/WX    TMP DP  RH WIND       PRES   REMARKS
WILLISTON      SUNNY     81  60  48 S6        29.98F HAZE
6HR MIN TEMP:  60; 6HR MAX TEMP:  82;

MINOT          CLOUDY    77  63  61 CALM      29.97F HAZE
$$

NDZ018>021-031>035-040>046-031900-
SOUTHWEST NORTH DAKOTA

CITY           SKY/WX    TMP DP  RH WIND       PRES   REMARKS
BISMARCK       PTSUNNY   80  62  54 SW3       29.99F HAZE
6HR MIN TEMP:  63; 6HR MAX TEMP:  80;

DICKINSON      MOSUNNY   80  59  48 S7        30.00F
GARRISON         N/A     76  65  68 S5        29.99S
6HR MIN TEMP:  60; 6HR MAX TEMP:  77;

HETTINGER ARPT SUNNY     79  60  52 SW6       30.03F
$$

NDZ004>008-012>016-024-026-027-054-031900-
NORTHEAST NORTH DAKOTA

CITY           SKY/WX    TMP DP  RH WIND       PRES   REMARKS
GRAND FORKS    PTSUNNY   79  65  62 N9        29.93S HAZE
GRND FRKS AFB  MOSUNNY   79  65  62 N6        29.94S HAZE
DEVILS LAKE    SUNNY     79  57  47 NW7       29.95F
$$

NDZ022-023-025-028>030-036>039-047>053-031900-
SOUTHEAST NORTH DAKOTA

CITY           SKY/WX    TMP DP  RH WIND       PRES   REMARKS
FARGO          SUNNY     81  65  58 N7        29.93S HAZE
6HR MIN TEMP:  64; 6HR MAX TEMP:  81;

JAMESTOWN      CLOUDY    78  66  66 N8        29.96F HAZE
$$




USA.gov is the U.S. government's official web portal to all federal, state and local government web resources and services.